Change the Weather History Date:

Sunday, January 15, 2012

  Actual Average Record
Temperature  
Mean Temperature 27 °F -  
Max Temperature 35 °F 14 °F 42 °F (1973)
Min Temperature 19 °F -6 °F -38 °F (1972)
Degree Days  
Heating Degree Days 38    
Moisture  
Dew Point 20 °F    
Average Humidity 80    
Maximum Humidity 93    
Minimum Humidity 56    
Precipitation  
Precipitation 0.00 in - - ()
Sea Level Pressure  
Sea Level Pressure 29.72 in    
Wind  
Wind Speed 8 mph (SSE)    
Max Wind Speed 20 mph    
Max Gust Speed 26 mph    
Visibility 10 miles    
Events      
Averages and records for this station are not official NWS values.
T = Trace of Precipitation, MM = Missing Value Source: NWS Daily Summary

Daily Weather History Graph

Daily Weather History Graph

Search for Another Location

Airport or City:

Trip Planner

Search our weather history database for the weather conditions in past years. The results will help you decide how hot, cold, wet, or windy it might be!

Date:

Astronomy

Jan. 15, 2012 Rise Set
Actual Time 8:06 AM CST 4:58 PM CST
Civil Twilight 7:32 AM CST 5:33 PM CST
Nautical Twilight 6:53 AM CST 6:11 PM CST
Astronomical Twilight 6:16 AM CST 6:48 PM CST
Moon No Moon Rise 10:50 AM CST (1/15)
Length of Visible Light 10h 01m
Length of Day
8h 51m
Waning Gibbous, 57% of the Moon is Illuminated
Jan 15
Waning Gibbous
Jan 16
Last Quarter
Jan 23
New
Jan 30
First Quarter
Feb 7
Full

Hourly Weather History & Observations

Time (CST) Temp. Windchill Dew Point Humidity Pressure Visibility Wind Dir Wind Speed Gust Speed Precip Events Conditions
12:15 AM 23.0 °F 17.0 °F 21.2 °F 93% 29.92 in 10.0 mi SSE 4.6 mph - N/A   Overcast
12:35 AM 23.0 °F 14.7 °F 21.2 °F 93% 29.92 in 10.0 mi SSE 6.9 mph - N/A   Overcast
12:55 AM 23.0 °F 15.8 °F 21.2 °F 93% 29.91 in 10.0 mi SSE 5.8 mph - N/A   Overcast
1:15 AM 23.0 °F 14.7 °F 19.4 °F 86% 29.90 in 10.0 mi SSE 6.9 mph - N/A   Mostly Cloudy
1:35 AM 21.2 °F 14.9 °F 19.4 °F 93% 29.90 in 10.0 mi SSE 4.6 mph - N/A   Clear
1:55 AM 21.2 °F 13.6 °F 19.4 °F 93% 29.89 in 10.0 mi SE 5.8 mph - N/A   Clear
2:15 AM 21.2 °F 16.4 °F 19.4 °F 93% 29.90 in 10.0 mi SSE 3.5 mph - N/A   Clear
2:35 AM 21.2 °F 14.9 °F 19.4 °F 93% 29.90 in 10.0 mi SE 4.6 mph - N/A   Clear
2:55 AM 19.4 °F 12.8 °F 17.6 °F 93% 29.90 in 10.0 mi SE 4.6 mph - N/A   Clear
3:16 AM 19.4 °F 11.5 °F 17.6 °F 93% 29.90 in 10.0 mi SE 5.8 mph - N/A   Scattered Clouds
3:35 AM 19.4 °F 10.4 °F 15.8 °F 86% 29.89 in 10.0 mi SE 6.9 mph - N/A   Clear
4:16 AM 19.4 °F 11.5 °F 17.6 °F 93% 29.88 in 7.0 mi SE 5.8 mph - N/A   Clear
4:35 AM 19.4 °F 11.5 °F 17.6 °F 93% 29.87 in 7.0 mi SE 5.8 mph - N/A   Mostly Cloudy
4:55 AM 19.4 °F 10.4 °F 17.6 °F 93% 29.86 in 10.0 mi SE 6.9 mph - N/A   Overcast
5:14 AM 21.2 °F 13.6 °F 19.4 °F 93% 29.85 in 10.0 mi SE 5.8 mph - N/A   Overcast
5:35 AM 21.2 °F 11.7 °F 19.4 °F 93% 29.84 in 10.0 mi SE 8.1 mph - N/A   Overcast
5:55 AM 21.2 °F 11.7 °F 19.4 °F 93% 29.84 in 10.0 mi SE 8.1 mph - N/A   Overcast
6:15 AM 21.2 °F 10.9 °F 19.4 °F 93% 29.82 in 10.0 mi ESE 9.2 mph - N/A   Overcast
6:35 AM 21.2 °F 10.1 °F 19.4 °F 93% 29.82 in 10.0 mi SE 10.4 mph - N/A   Mostly Cloudy
6:56 AM 21.2 °F 10.1 °F 19.4 °F 93% 29.80 in 10.0 mi SE 10.4 mph 16.1 mph N/A   Mostly Cloudy
7:15 AM 21.2 °F 10.1 °F 19.4 °F 93% 29.80 in 10.0 mi SE 10.4 mph - N/A   Mostly Cloudy
7:55 AM 21.2 °F 8.9 °F 17.6 °F 86% 29.76 in 10.0 mi SE 12.7 mph 18.4 mph N/A   Clear
8:15 AM 21.2 °F 9.5 °F 17.6 °F 86% 29.76 in 10.0 mi SE 11.5 mph 17.3 mph N/A   Scattered Clouds
8:35 AM 21.2 °F 10.1 °F 19.4 °F 93% 29.75 in 10.0 mi SE 10.4 mph 18.4 mph N/A   Scattered Clouds
8:56 AM 23.0 °F 13.9 °F 19.4 °F 86% 29.75 in 10.0 mi SE 8.1 mph - N/A   Mostly Cloudy
9:15 AM 24.8 °F 14.6 °F 19.4 °F 80% 29.74 in 10.0 mi SE 10.4 mph - N/A   Scattered Clouds
9:35 AM 24.8 °F 12.9 °F 19.4 °F 80% 29.71 in 10.0 mi SE 13.8 mph 18.4 mph N/A   Scattered Clouds
9:55 AM 24.8 °F 16.9 °F 19.4 °F 80% 29.71 in 10.0 mi SE 6.9 mph - N/A   Clear
10:15 AM 26.6 °F 17.5 °F 19.4 °F 74% 29.70 in 10.0 mi SE 9.2 mph - N/A   Clear
10:35 AM 28.4 °F 18.0 °F 19.4 °F 69% 29.70 in 10.0 mi SSE 12.7 mph 17.3 mph N/A   Clear
10:55 AM 30.2 °F 20.2 °F 19.4 °F 64% 29.69 in 10.0 mi SSE 12.7 mph - N/A   Clear
11:15 AM 30.2 °F 20.2 °F 19.4 °F 64% 29.67 in 10.0 mi SSE 12.7 mph - N/A   Clear
11:35 AM 30.2 °F 17.8 °F 19.4 °F 64% 29.66 in 10.0 mi South 19.6 mph 25.3 mph N/A   Clear
12:35 PM 33.8 °F 23.2 °F 21.2 °F 60% 29.61 in 10.0 mi SSE 17.3 mph 20.7 mph N/A   Clear
12:55 PM 33.8 °F 22.5 °F 21.2 °F 60% 29.60 in 10.0 mi SSE 19.6 mph 26.5 mph N/A   Clear
1:15 PM 33.8 °F 22.5 °F 21.2 °F 60% 29.60 in 10.0 mi South 19.6 mph 25.3 mph N/A   Clear
1:35 PM 33.8 °F 22.8 °F 21.2 °F 60% 29.59 in 10.0 mi South 18.4 mph - N/A   Clear
1:55 PM 35.6 °F 27.1 °F 21.2 °F 56% 29.58 in 10.0 mi South 12.7 mph - N/A   Clear
2:15 PM 35.6 °F 25.5 °F 23.0 °F 60% 29.58 in 10.0 mi SSE 17.3 mph 20.7 mph N/A   Clear
2:35 PM 35.6 °F 25.5 °F 21.2 °F 56% 29.59 in 10.0 mi South 17.3 mph - N/A   Clear
2:55 PM 35.6 °F 26.6 °F 21.2 °F 56% 29.59 in 10.0 mi South 13.8 mph - N/A   Clear
3:16 PM 35.6 °F 28.0 °F 23.0 °F 60% 29.58 in 10.0 mi South 10.4 mph - N/A   Clear
3:35 PM 35.6 °F 27.5 °F 23.0 °F 60% 29.58 in 10.0 mi South 11.5 mph - N/A   Clear
3:55 PM 35.6 °F 27.5 °F 21.2 °F 56% 29.59 in 10.0 mi South 11.5 mph 18.4 mph N/A   Clear
4:15 PM 33.8 °F 25.3 °F 21.2 °F 60% 29.60 in 10.0 mi SSW 11.5 mph - N/A   Clear
4:35 PM 30.2 °F 20.8 °F 21.2 °F 69% 29.60 in 10.0 mi SSW 11.5 mph - N/A   Clear
4:55 PM 30.2 °F 22.6 °F 21.2 °F 69% 29.61 in 10.0 mi SW 8.1 mph - N/A   Clear
5:15 PM 26.6 °F 18.2 °F 19.4 °F 74% 29.61 in 10.0 mi SSW 8.1 mph - N/A   Clear
5:35 PM 26.6 °F 17.5 °F 21.2 °F 80% 29.62 in 10.0 mi SSW 9.2 mph - N/A   Clear
5:55 PM 24.8 °F 16.1 °F 19.4 °F 80% 29.63 in 10.0 mi SSW 8.1 mph - N/A   Clear
6:15 PM 24.8 °F 16.1 °F 19.4 °F 80% 29.63 in 10.0 mi SSW 8.1 mph - N/A   Clear
6:35 PM 23.0 °F 14.7 °F 19.4 °F 86% 29.64 in 10.0 mi SSW 6.9 mph - N/A   Clear
6:55 PM 23.0 °F 14.7 °F 17.6 °F 80% 29.64 in 10.0 mi SSW 6.9 mph - N/A   Clear
7:16 PM 21.2 °F 10.9 °F 17.6 °F 86% 29.60 in 10.0 mi SSE 9.2 mph - N/A   Clear
7:35 PM 23.0 °F 14.7 °F 19.4 °F 86% 29.61 in 10.0 mi South 6.9 mph - N/A   Clear
7:55 PM 21.2 °F 13.6 °F 17.6 °F 86% 29.62 in 10.0 mi South 5.8 mph - N/A   Clear
8:15 PM 19.4 °F 11.5 °F 17.6 °F 93% 29.64 in 10.0 mi SW 5.8 mph - N/A   Clear
8:35 PM 19.4 °F 10.4 °F 17.6 °F 93% 29.65 in 10.0 mi SW 6.9 mph - N/A   Clear
8:55 PM 19.4 °F 9.5 °F 17.6 °F 93% 29.66 in 10.0 mi SSW 8.1 mph - N/A   Clear
9:14 PM 19.4 °F 10.4 °F 17.6 °F 93% 29.66 in 10.0 mi SSW 6.9 mph - N/A   Scattered Clouds
9:35 PM 19.4 °F 10.4 °F 17.6 °F 93% 29.67 in 10.0 mi SSW 6.9 mph - N/A   Scattered Clouds
9:55 PM 19.4 °F 10.4 °F 17.6 °F 93% 29.67 in 10.0 mi SW 6.9 mph - N/A   Scattered Clouds
10:15 PM 21.2 °F 9.5 °F 19.4 °F 93% 29.67 in 10.0 mi West 11.5 mph - N/A   Clear
10:32 PM 23.0 °F 13.9 °F 19.4 °F 86% 29.67 in 10.0 mi West 8.1 mph - N/A   Clear
10:55 PM 24.8 °F 11.9 °F 21.2 °F 86% 29.68 in 10.0 mi WNW 16.1 mph - N/A   Mostly Cloudy
11:15 PM 24.8 °F 11.5 °F 19.4 °F 80% 29.69 in 10.0 mi WNW 17.3 mph 24.2 mph N/A   Scattered Clouds
11:35 PM 23.0 °F 10.6 °F 17.6 °F 80% 29.70 in 10.0 mi WNW 13.8 mph 21.9 mph N/A   Clear
11:55 PM 21.2 °F 7.3 °F 17.6 °F 86% 29.70 in 10.0 mi WNW 16.1 mph 23.0 mph N/A   Scattered Clouds